Showing default

GONETS M 17, 46486

Orbit data source: Space-Track

GONETS M 17, 46486 is a payload satellite owned by Gonets (CIS) in LEO that was launched on Mon, 28 Sep 2020 UTC via a SOYUZ-2-1B launch vehicle from the Plesetsk Missile And Space Complex (PKMTR). Payload-class satellites include a variety of spacecraft equipped with specific instruments for various scientific and technological missions. These include communications satellites like Starlink; space stations such as the ISS; scientific satellites like the Hubble; Earth observation satellites from companies like Planet Labs, Umbra, and HawkEye 360; GPS; miniature CubeSats for education and research; and military/defense satellites.

Loading next visibility...
Identifier
46486, 2020-068A
Orbit
LEO
Country
Flag of CISCIS
Related business
Manufacturer
Resehetnev ISS
Mission
Operational Commercial Communications
Bus & Motor
STRELA-3M, Unknown motor
Mass
225 kg wet, 225 kg dry
Launch date (UTC)
2020-09-28 (6 years ago)
Launch vehicle
SOYUZ-2-1B
Launch site
Plesetsk Missile And Space Complex (PKMTR)
Object type
Payload
Rocket body
Debris
Shape & HBR
Cyl + 1 Ant, 3.5 m
Radar Cross Section
1.798 m², Large (>1 m²)

Expand to show TLE details & history
Last TLE update: 23 hours ago

TLE from 23 hours ago
0 GONETS M 17
1 46486U 20068A   26172.47580741  .00000102  00000-0  66464-3 0  9990
2 46486  82.4995 344.8337 0022903  28.4870 331.7457 12.42873491259696
Epoch: 2026-06-21T11:25Z
TLE epoch observation values (Epoch: 2026-06-21T11:25:09.760Z)
Latitude
0.00008°
Longitude
-96.13249°
Altitude
1,481.27 km
Speed
7.13 km/s
True Right ascension
22h 59m 20s
True Declination
0° 00' 00"
Sunlit
Object was in daylight at epoch
Visualization orbit readout
Latitude
Unknown
Longitude
Unknown
Altitude
Unknown
Speed
Unknown
Apparent Right ascension
Unknown
Apparent Declination
Unknown
Sunlit
N/A
Visualization observer readout
Local Sidereal Time
21:37:33
Azimuth
Unknown
Elevation
Unknown
Doppler factor
Unknown
Orbital elements
Apogee altitude
1,509.821 km
Perigee altitude
1,473.772 km
Semi-major axis
7,869.934 km
Eccentricity
0.00229
Inclination
82.4995°
RAAN
344.8337°
Arg. of periapsis
28.487°
True anomaly
331.62115°
Mean anomaly
331.7457°
Eccentric anomaly
331.68345°
Mean motion
3.10876 °/min
Orbital period
115.8 mins
BSTAR
0.00066464
Loading maneuver chart data...
Computing Atmospheric mass density...
Loading historical data...
Loading historical data...
Loading historical data...
Loading historical data...
Loading historical data...
Loading historical data...
Loading historical data...

Documentation

Showing up to 5 results
|